| time (UTC) | temp C | wind direction | speed KPH | gust KPH | rain 1hr cm | rain 24hr cm | rain mn cm | humidity % | barometer mb |
| 20260508124515 | 12 | 59 | 0.0 | 4.8 | 0.00 | 1.04 | 0.03 | 96 | 1017.3 |
| 20260508123020 | 11 | 279 | 0.0 | 3.2 | 0.00 | 1.04 | 0.03 | 96 | 1017.3 |
| 20260508121512 | 10 | 307 | 0.0 | 4.8 | 0.00 | 1.04 | 0.03 | 95 | 1017.3 |
| 20260508120005 | 10 | 307 | 0.0 | 6.4 | 0.03 | 1.04 | 0.03 | 95 | 1017.1 |
| 20260508114505 | 9 | 196 | 0.0 | 0.0 | 0.03 | 1.09 | 0.03 | 95 | 1016.8 |
| 20260508113115 | 8 | 184 | 0.0 | 3.2 | 0.03 | 1.09 | 0.03 | 94 | 1016.6 |
| 20260508111603 | 8 | 174 | 0.0 | 1.6 | 0.03 | 1.09 | 0.03 | 94 | 1016.4 |
| 20260508110100 | 8 | 302 | 0.0 | 3.2 | 0.00 | 1.07 | 0.00 | 94 | 1016.2 |
| 20260508104553 | 8 | 275 | 1.6 | 4.8 | 0.00 | 1.07 | 0.00 | 94 | 1015.6 |
| 20260508103049 | 7 | 26 | 0.0 | 0.0 | 0.00 | 1.07 | 0.00 | 93 | 1015.4 |
| 20260508101549 | 7 | 26 | 0.0 | 0.0 | 0.00 | 1.07 | 0.00 | 93 | 1015.2 |
| 20260508100046 | 8 | 26 | 0.0 | 0.0 | 0.00 | 1.07 | 0.00 | 93 | 1015.2 |
| 20260508094545 | 8 | 26 | 0.0 | 0.0 | 0.00 | 1.12 | 0.00 | 93 | 1015.1 |
| 20260508093047 | 8 | 26 | 0.0 | 0.0 | 0.00 | 1.12 | 0.00 | 93 | 1015.0 |
| 20260508091549 | 8 | 26 | 0.0 | 0.0 | 0.00 | 1.12 | 0.00 | 93 | 1014.7 |
| 20260508090042 | 8 | 26 | 0.0 | 0.0 | 0.00 | 1.12 | 0.00 | 93 | 1014.7 |
| 20260508084537 | 8 | 26 | 0.0 | 0.0 | 0.00 | 1.14 | 0.00 | 93 | 1014.5 |
| 20260508083037 | 8 | 26 | 0.0 | 0.0 | 0.00 | 1.14 | 0.00 | 93 | 1014.4 |
| 20260508081533 | 9 | 26 | 0.0 | 0.0 | 0.00 | 1.14 | 0.00 | 93 | 1014.3 |
| 20260508080035 | 9 | 26 | 0.0 | 0.0 | 0.00 | 1.14 | 0.00 | 93 | 1014.1 |
| 20260508074531 | 9 | 26 | 0.0 | 0.0 | 0.00 | 1.27 | 0.00 | 93 | 1014.0 |
| 20260508073027 | 10 | 26 | 0.0 | 0.0 | 0.00 | 1.27 | 0.00 | 92 | 1013.9 |
| 20260508071530 | 10 | 26 | 0.0 | 0.0 | 0.00 | 1.27 | 0.00 | 93 | 1013.8 |
| 20260508070023 | 10 | 26 | 0.0 | 0.0 | 0.00 | 1.27 | 0.00 | 93 | 1013.7 |
| 20260508064521 | 10 | 26 | 0.0 | 0.0 | 0.00 | 1.60 | 0.00 | 93 | 1013.7 |
| 20260508063020 | 10 | 26 | 0.0 | 0.0 | 0.00 | 1.60 | 0.00 | 93 | 1013.7 |
| 20260508061521 | 11 | 26 | 0.0 | 0.0 | 0.00 | 1.60 | 0.00 | 93 | 1013.9 |
| 20260508060018 | 11 | 26 | 0.0 | 0.0 | 0.00 | 1.60 | 0.00 | 93 | 1013.7 |
| 20260508054514 | 11 | 26 | 0.0 | 0.0 | 0.00 | 1.75 | 0.00 | 93 | 1013.6 |
| 20260508053013 | 11 | 26 | 0.0 | 0.0 | 0.00 | 1.75 | 0.00 | 93 | 1013.6 |
| 20260508051510 | 11 | 26 | 0.0 | 0.0 | 0.00 | 1.75 | 0.00 | 93 | 1013.5 |
| 20260508050012 | 12 | 26 | 0.0 | 0.0 | 0.00 | 1.75 | 0.00 | 93 | 1013.4 |
| 20260508044506 | 12 | 26 | 0.0 | 0.0 | 0.00 | 1.83 | 0.00 | 93 | 1013.2 |
| 20260508043007 | 12 | 26 | 0.0 | 0.0 | 0.00 | 1.83 | 0.00 | 93 | 1013.3 |
| 20260508041504 | 12 | 26 | 0.0 | 0.0 | 0.00 | 1.83 | 0.00 | 93 | 1013.2 |
| 20260508040008 | 12 | 26 | 0.0 | 0.0 | 0.00 | 1.83 | 0.00 | 93 | 1013.0 |
| 20260508034600 | 12 | 26 | 0.0 | 0.0 | 0.00 | 2.36 | 1.83 | 93 | 1013.0 |
| 20260508033059 | 12 | 26 | 0.0 | 0.0 | 0.00 | 2.36 | 1.83 | 93 | 1013.0 |
| 20260508031556 | 12 | 26 | 0.0 | 0.0 | 0.00 | 2.36 | 1.83 | 93 | 1013.0 |
| 20260508030055 | 13 | 26 | 0.0 | 0.0 | 0.00 | 2.36 | 1.83 | 93 | 1012.8 |
| 20260508024557 | 13 | 26 | 0.0 | 0.0 | 0.00 | 2.67 | 1.83 | 93 | 1012.7 |
| 20260508023050 | 13 | 26 | 0.0 | 0.0 | 0.00 | 2.67 | 1.83 | 93 | 1012.5 |
| 20260508021551 | 13 | 26 | 0.0 | 0.0 | 0.00 | 2.67 | 1.83 | 93 | 1012.1 |
| 20260508020047 | 13 | 26 | 0.0 | 0.0 | 0.00 | 2.67 | 1.83 | 93 | 1012.1 |
| 20260508014546 | 13 | 26 | 0.0 | 0.0 | 0.00 | 2.72 | 1.83 | 93 | 1011.7 |
| 20260508013046 | 14 | 26 | 0.0 | 0.0 | 0.00 | 2.72 | 1.83 | 93 | 1011.8 |
| 20260508011546 | 13 | 26 | 0.0 | 0.0 | 0.00 | 2.72 | 1.83 | 93 | 1011.3 |
| 20260508010044 | 13 | 26 | 0.0 | 3.2 | 0.00 | 2.72 | 1.83 | 93 | 1011.1 |
| 20260508004546 | 13 | 26 | 0.0 | 11.3 | 0.00 | 2.72 | 1.83 | 93 | 1010.4 |
| 20260508003043 | 14 | 49 | 0.0 | 6.4 | 0.00 | 2.72 | 1.83 | 92 | 1010.3 |
| 20260508001542 | 14 | 80 | 1.6 | 8.0 | 0.00 | 2.72 | 1.83 | 92 | 1009.9 |
| 20260508000040 | 14 | 44 | 0.0 | 16.1 | 0.00 | 2.72 | 1.83 | 92 | 1009.3 |
| 20260507234518 | 14 | 40 | 3.2 | 14.5 | 0.05 | 2.72 | 1.83 | 92 | 1009.9 |
| 20260507233028 | 14 | 86 | 6.4 | 11.3 | 0.13 | 2.72 | 1.83 | 91 | 1009.2 |
| 20260507231515 | 15 | 72 | 6.4 | 14.5 | 0.23 | 2.72 | 1.83 | 91 | 1009.0 |
| 20260507230013 | 15 | 89 | 1.6 | 19.3 | 0.23 | 2.69 | 1.80 | 91 | 1008.9 |
| 20260507224511 | 15 | 92 | 3.2 | 8.0 | 0.20 | 2.67 | 1.78 | 91 | 1009.3 |
| 20260507223011 | 15 | 107 | 0.0 | 16.1 | 0.20 | 2.59 | 1.70 | 90 | 1009.1 |
| 20260507221516 | 15 | 41 | 4.8 | 14.5 | 0.23 | 2.49 | 1.60 | 89 | 1008.3 |
| 20260507220010 | 16 | 24 | 9.7 | 20.9 | 0.20 | 2.46 | 1.57 | 88 | 1007.9 |
| 20260507214503 | 16 | 67 | 4.8 | 24.1 | 0.20 | 2.46 | 1.57 | 87 | 1007.3 |
| 20260507213108 | 17 | 92 | 6.4 | 25.7 | 0.13 | 2.39 | 1.50 | 84 | 1007.4 |
| 20260507211617 | 18 | 71 | 3.2 | 14.5 | 0.00 | 2.26 | 1.37 | 80 | 1007.4 |
| 20260507210056 | 20 | 45 | 6.4 | 22.5 | 0.00 | 2.26 | 1.37 | 76 | 1007.5 |
| 20260507204606 | 22 | 129 | 9.7 | 27.4 | 0.00 | 2.26 | 1.37 | 73 | 1007.0 |
| 20260507203100 | 24 | 282 | 0.0 | 8.0 | 0.00 | 2.26 | 1.37 | 74 | 1006.3 |
| 20260507201553 | 25 | 217 | 3.2 | 8.0 | 0.00 | 2.26 | 1.37 | 75 | 1005.9 |
| 20260507201517 | 24 | 18 | 1.6 | 8.0 | 0.00 | 2.26 | 1.37 | 74 | 1006.0 |
| 20260507200051 | 25 | 221 | 1.6 | 9.7 | 0.00 | 2.26 | 1.37 | 81 | 1006.1 |
| 20260507194617 | 24 | 190 | 0.0 | 9.7 | 0.00 | 2.26 | 1.37 | 75 | 1006.4 |
| 20260507193046 | 23 | 217 | 1.6 | 8.0 | 0.00 | 2.26 | 1.37 | 80 | 1006.6 |
| 20260507191547 | 23 | 340 | 0.0 | 6.4 | 0.00 | 2.26 | 1.37 | 82 | 1006.9 |
| 20260507190041 | 23 | 355 | 1.6 | 9.7 | 0.00 | 2.26 | 1.37 | 86 | 1007.1 |
| 20260507184543 | 22 | 309 | 1.6 | 8.0 | 0.00 | 2.49 | 1.37 | 85 | 1007.0 |
| 20260507183039 | 22 | 317 | 1.6 | 9.7 | 0.00 | 2.49 | 1.37 | 88 | 1007.1 |
| 20260507181533 | 21 | 262 | 0.0 | 9.7 | 0.00 | 2.49 | 1.37 | 92 | 1007.5 |
| 20260507180040 | 20 | 300 | 4.8 | 11.3 | 0.00 | 2.49 | 1.37 | 92 | 1007.7 |
| 20260507174631 | 21 | 290 | 1.6 | 6.4 | 0.00 | 2.92 | 1.37 | 93 | 1007.6 |
| 20260507173052 | 20 | 302 | 1.6 | 9.7 | 0.00 | 2.92 | 1.37 | 92 | 1007.9 |
| 20260507171509 | 21 | 290 | 1.6 | 9.7 | 0.00 | 2.92 | 1.37 | 93 | 1008.0 |
| 20260507170111 | 20 | 244 | 0.0 | 1.6 | 0.00 | 2.92 | 1.37 | 95 | 1007.6 |
| 20260507164522 | 20 | 286 | 0.0 | 8.0 | 0.00 | 2.92 | 1.37 | 95 | 1008.1 |
| 20260507163115 | 20 | 301 | 4.8 | 11.3 | 0.00 | 2.92 | 1.37 | 94 | 1008.5 |
| 20260507161545 | 20 | 288 | 0.0 | 8.0 | 0.05 | 2.92 | 1.37 | 95 | 1007.5 |
| 20260507160132 | 20 | 121 | 0.0 | 3.2 | 0.05 | 2.92 | 1.37 | 96 | 1007.1 |
| 20260507154559 | 20 | 17 | 0.0 | 1.6 | 0.08 | 2.92 | 1.37 | 96 | 1007.2 |
| 20260507153019 | 20 | 17 | 0.0 | 1.6 | 0.08 | 2.90 | 1.35 | 96 | 1007.8 |
| 20260507151605 | 20 | 316 | 0.0 | 4.8 | 0.05 | 2.87 | 1.32 | 96 | 1008.5 |
| 20260507150027 | 19 | 326 | 1.6 | 8.0 | 0.05 | 2.87 | 1.32 | 96 | 1009.1 |
| 20260507144622 | 20 | 211 | 0.0 | 3.2 | 0.05 | 2.84 | 1.30 | 96 | 1009.3 |
| 20260507143038 | 20 | 186 | 0.0 | 3.2 | 0.05 | 2.84 | 1.27 | 96 | 1008.7 |
| 20260507141633 | 20 | 140 | 0.0 | 6.4 | 0.10 | 2.84 | 1.27 | 96 | 1008.6 |
| 20260507140049 | 19 | 155 | 1.6 | 6.4 | 0.20 | 2.84 | 1.27 | 96 | 1008.1 |
| 20260507134629 | 19 | 207 | 0.0 | 0.0 | 0.28 | 2.82 | 1.24 | 96 | 1008.6 |
| 20260507133043 | 19 | 277 | 0.0 | 0.0 | 0.36 | 2.79 | 1.22 | 96 | 1008.4 |
| 20260507131515 | 18 | 279 | 0.0 | 4.8 | 0.36 | 2.74 | 1.17 | 96 | 1008.7 |
| 20260507130103 | 18 | 328 | 0.0 | 8.0 | 0.25 | 2.64 | 1.07 | 96 | 1009.0 |